PWSweather.com
Personal Weather Stations
Station Observations
NAGEO265NE
Bedzin GrodziecPL 42-506

Bedzin GrodziecPL 42-506

Lat: 50.347, Lon: 19.079

Elevation: 948

Station Type: WH1080

http://www.meteo-grodziec.pl/

High Low Average
Temperature 40.1°F4.5°C 36.1°F2.3°C 38.0°F3.3°C
Dew Point 39.4°F4.1°C 35.1°F1.7°C 36.7°F2.6°C
Winds 5.0 mph 8.0 kmh Calm Calm 2.0 mph WSW3.2 kmh WSW
Wind Gusts 14.0 mph22.5 kmh -- 6.0 mph9.7 kmh
Humidity 97% 92% 95%
Pressure 30.02 in1016.6 mb 29.46 in997.6 mb -
Precipitation 0.16 in4.1 mm - -
Hour Temp Dew Point Humidity Winds Wind Gusts Pressure Precip Precip Rate Daily Precip Total
12:00 AM 38.3°F3.5°C 37.2°F2.9°C 96% 2.0 mph E3.2 kmh E 6.0 mph9.7 kmh 29.47 in998.0 mb 0.08 in2.0 mm 0.00 in0.0 mm 0.08 in2.0 mm
12:05 AM 38.5°F3.6°C 37.4°F3.0°C 96% 2.0 mph E3.2 kmh E 5.0 mph8.0 kmh 29.46 in997.6 mb 0.08 in2.0 mm 0.00 in0.0 mm 0.08 in2.0 mm
12:10 AM 38.5°F3.6°C 37.4°F3.0°C 96% 3.0 mph ENE4.8 kmh ENE 6.0 mph9.7 kmh 29.46 in997.6 mb 0.07 in1.8 mm 0.00 in0.0 mm 0.01 in0.3 mm
12:15 AM 38.5°F3.6°C 37.4°F3.0°C 96% 3.0 mph ENE4.8 kmh ENE 6.0 mph9.7 kmh 29.46 in997.6 mb 0.07 in1.8 mm 0.00 in0.0 mm 0.01 in0.3 mm
12:20 AM 38.5°F3.6°C 37.4°F3.0°C 96% 3.0 mph E4.8 kmh E 6.0 mph9.7 kmh 29.46 in997.6 mb 0.07 in1.8 mm 0.00 in0.0 mm 0.02 in0.5 mm
12:25 AM 38.7°F3.7°C 37.6°F3.1°C 96% 3.0 mph E4.8 kmh E 5.0 mph8.0 kmh 29.46 in997.6 mb 0.06 in1.5 mm 0.00 in0.0 mm 0.02 in0.5 mm
12:30 AM 38.7°F3.7°C 37.6°F3.1°C 96% 2.0 mph E3.2 kmh E 5.0 mph8.0 kmh 29.46 in997.6 mb 0.06 in1.5 mm 0.00 in0.0 mm 0.02 in0.5 mm
12:35 AM 38.7°F3.7°C 37.6°F3.1°C 96% 2.0 mph E3.2 kmh E 5.0 mph8.0 kmh 29.46 in997.6 mb 0.05 in1.3 mm 0.00 in0.0 mm 0.02 in0.5 mm
12:40 AM 38.7°F3.7°C 37.6°F3.1°C 96% 2.0 mph E3.2 kmh E 5.0 mph8.0 kmh 29.46 in997.6 mb 0.04 in1.0 mm 0.00 in0.0 mm 0.02 in0.5 mm
12:45 AM 38.7°F3.7°C 37.6°F3.1°C 96% 2.0 mph E3.2 kmh E 6.0 mph9.7 kmh 29.46 in997.6 mb 0.04 in1.0 mm 0.00 in0.0 mm 0.02 in0.5 mm
12:50 AM 38.8°F3.8°C 37.8°F3.2°C 96% 2.0 mph E3.2 kmh E 6.0 mph9.7 kmh 29.46 in997.6 mb 0.03 in0.8 mm 0.00 in0.0 mm 0.02 in0.5 mm
12:55 AM 38.8°F3.8°C 37.8°F3.2°C 96% 1.0 mph E1.6 kmh E 4.0 mph6.4 kmh 29.46 in997.6 mb 0.02 in0.5 mm 0.00 in0.0 mm 0.02 in0.5 mm
01:00 AM 38.8°F3.8°C 37.9°F3.3°C 96% 1.0 mph E1.6 kmh E 4.0 mph6.4 kmh 29.47 in998.0 mb 0.02 in0.5 mm 0.00 in0.0 mm 0.02 in0.5 mm
01:05 AM 38.8°F3.8°C 37.9°F3.3°C 96% 1.0 mph E1.6 kmh E 3.0 mph4.8 kmh 29.47 in998.0 mb 0.02 in0.5 mm 0.00 in0.0 mm 0.02 in0.5 mm
01:10 AM 38.8°F3.8°C 37.9°F3.3°C 96% 1.0 mph E1.6 kmh E 3.0 mph4.8 kmh 29.47 in998.0 mb 0.01 in0.3 mm 0.00 in0.0 mm 0.02 in0.5 mm
01:15 AM 38.8°F3.8°C 37.9°F3.3°C 96% Calm Calm 2.0 mph3.2 kmh 29.47 in998.0 mb 0.01 in0.3 mm 0.00 in0.0 mm 0.02 in0.5 mm
01:20 AM 39.0°F3.9°C 37.9°F3.3°C 96% 1.0 mph ENE1.6 kmh ENE 4.0 mph6.4 kmh 29.47 in998.0 mb 0.01 in0.3 mm 0.00 in0.0 mm 0.02 in0.5 mm
01:25 AM 39.0°F3.9°C 38.1°F3.4°C 96% 1.0 mph ENE1.6 kmh ENE 4.0 mph6.4 kmh 29.47 in998.0 mb 0.01 in0.3 mm 0.00 in0.0 mm 0.02 in0.5 mm
01:30 AM 39.0°F3.9°C 38.1°F3.4°C 96% Calm Calm 2.0 mph3.2 kmh 29.47 in998.0 mb 0.01 in0.3 mm 0.00 in0.0 mm 0.02 in0.5 mm
01:35 AM 39.2°F4.0°C 38.5°F3.6°C 97% Calm Calm 5.0 mph8.0 kmh 29.47 in998.0 mb 0.01 in0.3 mm 0.00 in0.0 mm 0.02 in0.5 mm
01:40 AM 39.2°F4.0°C 38.5°F3.6°C 97% 1.0 mph ENE1.6 kmh ENE 5.0 mph8.0 kmh 29.47 in998.0 mb 0.01 in0.3 mm 0.00 in0.0 mm 0.02 in0.5 mm
01:45 AM 39.4°F4.1°C 38.5°F3.6°C 97% 1.0 mph ENE1.6 kmh ENE 4.0 mph6.4 kmh 29.47 in998.0 mb 0.01 in0.3 mm 0.00 in0.0 mm 0.02 in0.5 mm
01:50 AM 39.4°F4.1°C 38.5°F3.6°C 97% Calm Calm 1.0 mph1.6 kmh 29.47 in998.0 mb 0.01 in0.3 mm 0.00 in0.0 mm 0.02 in0.5 mm
01:55 AM 39.4°F4.1°C 38.5°F3.6°C 97% Calm Calm 2.0 mph3.2 kmh 29.47 in998.0 mb 0.01 in0.3 mm 0.00 in0.0 mm 0.02 in0.5 mm
02:00 AM 39.4°F4.1°C 38.7°F3.7°C 97% Calm Calm 2.0 mph3.2 kmh 29.47 in998.0 mb 0.01 in0.3 mm 0.00 in0.0 mm 0.02 in0.5 mm
02:05 AM 39.4°F4.1°C 38.7°F3.7°C 97% Calm Calm 2.0 mph3.2 kmh 29.47 in998.0 mb 0.01 in0.3 mm 0.00 in0.0 mm 0.02 in0.5 mm
02:10 AM 39.6°F4.2°C 38.7°F3.7°C 97% Calm Calm 2.0 mph3.2 kmh 29.47 in998.0 mb 0.01 in0.3 mm 0.00 in0.0 mm 0.02 in0.5 mm
02:15 AM 39.6°F4.2°C 38.7°F3.7°C 97% Calm Calm 2.0 mph3.2 kmh 29.47 in998.0 mb 0.01 in0.3 mm 0.00 in0.0 mm 0.02 in0.5 mm
02:20 AM 39.6°F4.2°C 38.7°F3.7°C 97% Calm Calm 2.0 mph3.2 kmh 29.46 in997.6 mb 0.00 in0.0 mm 0.00 in0.0 mm 0.02 in0.5 mm
02:25 AM 39.6°F4.2°C 38.7°F3.7°C 97% Calm Calm 1.0 mph1.6 kmh 29.46 in997.6 mb 0.00 in0.0 mm 0.00 in0.0 mm 0.02 in0.5 mm
02:30 AM 39.6°F4.2°C 38.8°F3.8°C 97% Calm Calm 2.0 mph3.2 kmh 29.46 in997.6 mb 0.00 in0.0 mm 0.00 in0.0 mm 0.02 in0.5 mm
02:35 AM 39.6°F4.2°C 38.8°F3.8°C 97% Calm Calm 2.0 mph3.2 kmh 29.47 in998.0 mb 0.00 in0.0 mm 0.00 in0.0 mm 0.02 in0.5 mm
02:40 AM 39.6°F4.2°C 38.8°F3.8°C 97% Calm Calm -- 29.47 in998.0 mb 0.00 in0.0 mm 0.00 in0.0 mm 0.02 in0.5 mm
02:45 AM 39.7°F4.3°C 38.8°F3.8°C 97% Calm Calm 1.0 mph1.6 kmh 29.47 in998.0 mb 0.00 in0.0 mm 0.00 in0.0 mm 0.02 in0.5 mm
02:50 AM 39.7°F4.3°C 38.8°F3.8°C 97% Calm Calm 1.0 mph1.6 kmh 29.47 in998.0 mb 0.00 in0.0 mm 0.00 in0.0 mm 0.02 in0.5 mm
02:55 AM 39.7°F4.3°C 38.8°F3.8°C 97% Calm Calm -- 29.47 in998.0 mb 0.00 in0.0 mm 0.00 in0.0 mm 0.02 in0.5 mm
03:00 AM 39.7°F4.3°C 38.8°F3.8°C 97% Calm Calm -- 29.47 in998.0 mb 0.00 in0.0 mm 0.00 in0.0 mm 0.02 in0.5 mm
03:05 AM 39.7°F4.3°C 38.8°F3.8°C 97% Calm Calm -- 29.47 in998.0 mb 0.00 in0.0 mm 0.00 in0.0 mm 0.02 in0.5 mm
03:10 AM 39.6°F4.2°C 38.8°F3.8°C 97% Calm Calm -- 29.48 in998.3 mb 0.00 in0.0 mm 0.00 in0.0 mm 0.02 in0.5 mm
03:15 AM 39.7°F4.3°C 38.8°F3.8°C 97% Calm Calm -- 29.48 in998.3 mb 0.00 in0.0 mm 0.00 in0.0 mm 0.02 in0.5 mm
03:20 AM 39.7°F4.3°C 38.8°F3.8°C 97% Calm Calm -- 29.48 in998.3 mb 0.00 in0.0 mm 0.00 in0.0 mm 0.02 in0.5 mm
03:25 AM 39.7°F4.3°C 39.0°F3.9°C 97% Calm Calm -- 29.48 in998.3 mb 0.00 in0.0 mm 0.00 in0.0 mm 0.02 in0.5 mm
03:30 AM 39.7°F4.3°C 39.0°F3.9°C 97% Calm Calm -- 29.48 in998.3 mb 0.00 in0.0 mm 0.00 in0.0 mm 0.02 in0.5 mm
03:35 AM 39.9°F4.4°C 39.2°F4.0°C 97% Calm Calm -- 29.47 in998.0 mb 0.00 in0.0 mm 0.00 in0.0 mm 0.02 in0.5 mm
03:40 AM 39.9°F4.4°C 39.2°F4.0°C 97% Calm Calm -- 29.48 in998.3 mb 0.00 in0.0 mm 0.00 in0.0 mm 0.02 in0.5 mm
03:45 AM 39.9°F4.4°C 39.2°F4.0°C 97% Calm Calm -- 29.48 in998.3 mb 0.00 in0.0 mm 0.00 in0.0 mm 0.02 in0.5 mm
03:50 AM 39.7°F4.3°C 39.0°F3.9°C 97% Calm Calm -- 29.48 in998.3 mb 0.00 in0.0 mm 0.00 in0.0 mm 0.02 in0.5 mm
03:55 AM 39.9°F4.4°C 39.2°F4.0°C 97% Calm Calm -- 29.49 in998.6 mb 0.00 in0.0 mm 0.00 in0.0 mm 0.02 in0.5 mm
04:00 AM 39.9°F4.4°C 39.2°F4.0°C 97% Calm Calm 1.0 mph1.6 kmh 29.50 in999.0 mb 0.00 in0.0 mm 0.00 in0.0 mm 0.02 in0.5 mm
04:05 AM 39.9°F4.4°C 39.2°F4.0°C 97% Calm Calm 1.0 mph1.6 kmh 29.50 in999.0 mb 0.00 in0.0 mm 0.00 in0.0 mm 0.02 in0.5 mm
04:10 AM 39.7°F4.3°C 39.0°F3.9°C 97% Calm Calm 1.0 mph1.6 kmh 29.50 in999.0 mb 0.00 in0.0 mm 0.00 in0.0 mm 0.02 in0.5 mm
04:15 AM 39.7°F4.3°C 39.0°F3.9°C 97% Calm Calm -- 29.50 in999.0 mb 0.00 in0.0 mm 0.00 in0.0 mm 0.02 in0.5 mm
04:20 AM 39.9°F4.4°C 39.2°F4.0°C 97% Calm Calm -- 29.51 in999.3 mb 0.00 in0.0 mm 0.00 in0.0 mm 0.02 in0.5 mm
04:25 AM 39.9°F4.4°C 39.2°F4.0°C 97% Calm Calm -- 29.51 in999.3 mb 0.00 in0.0 mm 0.00 in0.0 mm 0.02 in0.5 mm
04:30 AM 39.9°F4.4°C 39.2°F4.0°C 97% Calm Calm 1.0 mph1.6 kmh 29.51 in999.3 mb 0.00 in0.0 mm 0.00 in0.0 mm 0.02 in0.5 mm
04:35 AM 39.9°F4.4°C 39.2°F4.0°C 97% Calm Calm 1.0 mph1.6 kmh 29.52 in999.7 mb 0.00 in0.0 mm 0.00 in0.0 mm 0.02 in0.5 mm
04:40 AM 39.9°F4.4°C 39.2°F4.0°C 97% Calm Calm 1.0 mph1.6 kmh 29.52 in999.7 mb 0.00 in0.0 mm 0.00 in0.0 mm 0.02 in0.5 mm
04:45 AM 40.1°F4.5°C 39.4°F4.1°C 97% Calm Calm 1.0 mph1.6 kmh 29.52 in999.7 mb 0.00 in0.0 mm 0.00 in0.0 mm 0.02 in0.5 mm
04:50 AM 40.1°F4.5°C 39.4°F4.1°C 97% Calm Calm 1.0 mph1.6 kmh 29.52 in999.7 mb 0.00 in0.0 mm 0.00 in0.0 mm 0.02 in0.5 mm
04:55 AM 40.1°F4.5°C 39.4°F4.1°C 97% Calm Calm 2.0 mph3.2 kmh 29.53 in1000.0 mb 0.00 in0.0 mm 0.00 in0.0 mm 0.02 in0.5 mm
05:00 AM 40.1°F4.5°C 39.4°F4.1°C 97% Calm Calm 3.0 mph4.8 kmh 29.53 in1000.0 mb 0.00 in0.0 mm 0.00 in0.0 mm 0.02 in0.5 mm
05:05 AM 40.1°F4.5°C 39.4°F4.1°C 97% 1.0 mph WNW1.6 kmh WNW 4.0 mph6.4 kmh 29.53 in1000.0 mb 0.00 in0.0 mm 0.00 in0.0 mm 0.02 in0.5 mm
05:10 AM 40.1°F4.5°C 39.4°F4.1°C 97% 1.0 mph W1.6 kmh W 7.0 mph11.3 kmh 29.54 in1000.3 mb 0.00 in0.0 mm 0.00 in0.0 mm 0.02 in0.5 mm
05:15 AM 40.1°F4.5°C 39.4°F4.1°C 97% 1.0 mph WNW1.6 kmh WNW 7.0 mph11.3 kmh 29.53 in1000.0 mb 0.00 in0.0 mm 0.00 in0.0 mm 0.02 in0.5 mm
05:20 AM 39.9°F4.4°C 39.2°F4.0°C 97% 1.0 mph WNW1.6 kmh WNW 8.0 mph12.9 kmh 29.54 in1000.3 mb 0.00 in0.0 mm 0.00 in0.0 mm 0.02 in0.5 mm
05:25 AM 39.9°F4.4°C 39.2°F4.0°C 97% 2.0 mph WNW3.2 kmh WNW 8.0 mph12.9 kmh 29.54 in1000.3 mb 0.01 in0.3 mm 0.12 in3.0 mm 0.03 in0.8 mm
05:30 AM 39.7°F4.3°C 38.8°F3.8°C 97% 2.0 mph WNW3.2 kmh WNW 8.0 mph12.9 kmh 29.54 in1000.3 mb 0.01 in0.3 mm 0.00 in0.0 mm 0.03 in0.8 mm
05:35 AM 39.6°F4.2°C 38.8°F3.8°C 97% 1.0 mph WNW1.6 kmh WNW 7.0 mph11.3 kmh 29.54 in1000.3 mb 0.01 in0.3 mm 0.00 in0.0 mm 0.03 in0.8 mm
05:40 AM 39.4°F4.1°C 38.7°F3.7°C 97% 1.0 mph NW1.6 kmh NW 7.0 mph11.3 kmh 29.54 in1000.3 mb 0.01 in0.3 mm 0.00 in0.0 mm 0.03 in0.8 mm
05:45 AM 39.0°F3.9°C 38.3°F3.5°C 97% 2.0 mph NW3.2 kmh NW 9.0 mph14.5 kmh 29.55 in1000.7 mb 0.01 in0.3 mm 0.00 in0.0 mm 0.03 in0.8 mm
05:50 AM 39.0°F3.9°C 38.3°F3.5°C 97% 3.0 mph NW4.8 kmh NW 9.0 mph14.5 kmh 29.55 in1000.7 mb 0.01 in0.3 mm 0.00 in0.0 mm 0.03 in0.8 mm
05:55 AM 38.8°F3.8°C 38.1°F3.4°C 97% 2.0 mph NW3.2 kmh NW 7.0 mph11.3 kmh 29.55 in1000.7 mb 0.01 in0.3 mm 0.00 in0.0 mm 0.03 in0.8 mm
06:00 AM 38.8°F3.8°C 37.9°F3.3°C 97% 2.0 mph WNW3.2 kmh WNW 6.0 mph9.7 kmh 29.55 in1000.7 mb 0.01 in0.3 mm 0.00 in0.0 mm 0.03 in0.8 mm
06:05 AM 38.7°F3.7°C 37.9°F3.3°C 97% 2.0 mph WNW3.2 kmh WNW 7.0 mph11.3 kmh 29.55 in1000.7 mb 0.01 in0.3 mm 0.00 in0.0 mm 0.03 in0.8 mm
06:10 AM 38.7°F3.7°C 37.9°F3.3°C 97% 2.0 mph NW3.2 kmh NW 7.0 mph11.3 kmh 29.56 in1001.0 mb 0.01 in0.3 mm 0.00 in0.0 mm 0.03 in0.8 mm
06:15 AM 38.7°F3.7°C 37.8°F3.2°C 97% 2.0 mph NW3.2 kmh NW 7.0 mph11.3 kmh 29.56 in1001.0 mb 0.01 in0.3 mm 0.00 in0.0 mm 0.03 in0.8 mm
06:20 AM 38.7°F3.7°C 37.8°F3.2°C 97% 2.0 mph NW3.2 kmh NW 5.0 mph8.0 kmh 29.56 in1001.0 mb 0.01 in0.3 mm 0.00 in0.0 mm 0.03 in0.8 mm
06:25 AM 38.7°F3.7°C 37.8°F3.2°C 97% 2.0 mph NW3.2 kmh NW 6.0 mph9.7 kmh 29.56 in1001.0 mb 0.00 in0.0 mm 0.00 in0.0 mm 0.03 in0.8 mm
06:30 AM 38.7°F3.7°C 37.8°F3.2°C 97% 2.0 mph NW3.2 kmh NW 6.0 mph9.7 kmh 29.57 in1001.4 mb 0.00 in0.0 mm 0.00 in0.0 mm 0.03 in0.8 mm
06:35 AM 38.5°F3.6°C 37.8°F3.2°C 97% 1.0 mph NW1.6 kmh NW 6.0 mph9.7 kmh 29.57 in1001.4 mb 0.00 in0.0 mm 0.00 in0.0 mm 0.03 in0.8 mm
06:40 AM 38.5°F3.6°C 37.8°F3.2°C 97% 2.0 mph NW3.2 kmh NW 8.0 mph12.9 kmh 29.57 in1001.4 mb 0.00 in0.0 mm 0.00 in0.0 mm 0.03 in0.8 mm
06:45 AM 38.5°F3.6°C 37.6°F3.1°C 97% 3.0 mph NW4.8 kmh NW 8.0 mph12.9 kmh 29.57 in1001.4 mb 0.00 in0.0 mm 0.00 in0.0 mm 0.03 in0.8 mm
06:50 AM 38.5°F3.6°C 37.6°F3.1°C 97% 3.0 mph NW4.8 kmh NW 8.0 mph12.9 kmh 29.57 in1001.4 mb 0.00 in0.0 mm 0.00 in0.0 mm 0.03 in0.8 mm
06:55 AM 38.3°F3.5°C 37.6°F3.1°C 97% 3.0 mph NW4.8 kmh NW 8.0 mph12.9 kmh 29.58 in1001.7 mb 0.00 in0.0 mm 0.00 in0.0 mm 0.03 in0.8 mm
07:00 AM 38.3°F3.5°C 37.6°F3.1°C 97% 3.0 mph NW4.8 kmh NW 7.0 mph11.3 kmh 29.58 in1001.7 mb 0.00 in0.0 mm 0.00 in0.0 mm 0.03 in0.8 mm
07:05 AM 38.5°F3.6°C 37.6°F3.1°C 97% 2.0 mph NW3.2 kmh NW 7.0 mph11.3 kmh 29.59 in1002.0 mb 0.00 in0.0 mm 0.00 in0.0 mm 0.03 in0.8 mm
07:10 AM 38.3°F3.5°C 37.6°F3.1°C 97% 1.0 mph NW1.6 kmh NW 5.0 mph8.0 kmh 29.59 in1002.0 mb 0.00 in0.0 mm 0.00 in0.0 mm 0.03 in0.8 mm
07:15 AM 38.1°F3.4°C 37.4°F3.0°C 97% 2.0 mph NW3.2 kmh NW 8.0 mph12.9 kmh 29.60 in1002.4 mb 0.00 in0.0 mm 0.00 in0.0 mm 0.03 in0.8 mm
07:20 AM 38.1°F3.4°C 37.4°F3.0°C 97% 3.0 mph NW4.8 kmh NW 10.0 mph16.1 kmh 29.60 in1002.4 mb 0.00 in0.0 mm 0.00 in0.0 mm 0.03 in0.8 mm
07:25 AM 37.9°F3.3°C 37.2°F2.9°C 97% 2.0 mph NW3.2 kmh NW 10.0 mph16.1 kmh 29.61 in1002.7 mb 0.00 in0.0 mm 0.00 in0.0 mm 0.03 in0.8 mm
07:30 AM 37.9°F3.3°C 37.2°F2.9°C 97% 2.0 mph NW3.2 kmh NW 9.0 mph14.5 kmh 29.61 in1002.7 mb 0.00 in0.0 mm 0.00 in0.0 mm 0.03 in0.8 mm
07:35 AM 37.9°F3.3°C 37.2°F2.9°C 97% 2.0 mph NW3.2 kmh NW 9.0 mph14.5 kmh 29.61 in1002.7 mb 0.00 in0.0 mm 0.00 in0.0 mm 0.03 in0.8 mm
07:40 AM 37.9°F3.3°C 37.2°F2.9°C 97% 2.0 mph NW3.2 kmh NW 9.0 mph14.5 kmh 29.62 in1003.0 mb 0.00 in0.0 mm 0.00 in0.0 mm 0.03 in0.8 mm
07:45 AM 37.9°F3.3°C 37.0°F2.8°C 97% 3.0 mph NW4.8 kmh NW 9.0 mph14.5 kmh 29.62 in1003.0 mb 0.00 in0.0 mm 0.00 in0.0 mm 0.03 in0.8 mm
07:50 AM 37.9°F3.3°C 37.0°F2.8°C 97% 2.0 mph NW3.2 kmh NW 7.0 mph11.3 kmh 29.63 in1003.4 mb 0.01 in0.3 mm 0.12 in3.0 mm 0.04 in1.0 mm
07:55 AM 37.9°F3.3°C 37.0°F2.8°C 97% 2.0 mph NW3.2 kmh NW 7.0 mph11.3 kmh 29.63 in1003.4 mb 0.01 in0.3 mm 0.00 in0.0 mm 0.04 in1.0 mm
08:00 AM 37.8°F3.2°C 36.7°F2.6°C 96% 2.0 mph NW3.2 kmh NW 9.0 mph14.5 kmh 29.63 in1003.4 mb 0.01 in0.3 mm 0.00 in0.0 mm 0.04 in1.0 mm
08:05 AM 37.6°F3.1°C 36.5°F2.5°C 96% 4.0 mph NW6.4 kmh NW 9.0 mph14.5 kmh 29.64 in1003.7 mb 0.02 in0.5 mm 0.12 in3.0 mm 0.05 in1.3 mm
08:10 AM 37.6°F3.1°C 36.5°F2.5°C 96% 4.0 mph NW6.4 kmh NW 13.0 mph20.9 kmh 29.64 in1003.7 mb 0.02 in0.5 mm 0.00 in0.0 mm 0.05 in1.3 mm
08:15 AM 37.6°F3.1°C 36.5°F2.5°C 96% 4.0 mph NW6.4 kmh NW 13.0 mph20.9 kmh 29.65 in1004.1 mb 0.02 in0.5 mm 0.00 in0.0 mm 0.06 in1.5 mm
08:20 AM 37.2°F2.9°C 36.3°F2.4°C 96% 4.0 mph NW6.4 kmh NW 12.0 mph19.3 kmh 29.65 in1004.1 mb 0.02 in0.5 mm 0.00 in0.0 mm 0.06 in1.5 mm
08:25 AM 37.2°F2.9°C 36.1°F2.3°C 96% 5.0 mph NW8.0 kmh NW 12.0 mph19.3 kmh 29.65 in1004.1 mb 0.03 in0.8 mm 0.12 in3.0 mm 0.06 in1.5 mm
08:30 AM 37.0°F2.8°C 36.1°F2.3°C 96% 5.0 mph NW8.0 kmh NW 11.0 mph17.7 kmh 29.65 in1004.1 mb 0.03 in0.8 mm 0.00 in0.0 mm 0.06 in1.5 mm
08:35 AM 37.0°F2.8°C 36.0°F2.2°C 96% 4.0 mph NW6.4 kmh NW 11.0 mph17.7 kmh 29.66 in1004.4 mb 0.04 in1.0 mm 0.12 in3.0 mm 0.07 in1.8 mm
08:40 AM 36.9°F2.7°C 35.8°F2.1°C 96% 3.0 mph NW4.8 kmh NW 10.0 mph16.1 kmh 29.66 in1004.4 mb 0.05 in1.3 mm 0.12 in3.0 mm 0.08 in2.0 mm
08:45 AM 36.7°F2.6°C 35.6°F2.0°C 96% 5.0 mph NW8.0 kmh NW 12.0 mph19.3 kmh 29.66 in1004.4 mb 0.05 in1.3 mm 0.00 in0.0 mm 0.08 in2.0 mm
08:50 AM 36.5°F2.5°C 35.4°F1.9°C 96% 5.0 mph NW8.0 kmh NW 12.0 mph19.3 kmh 29.66 in1004.4 mb 0.04 in1.0 mm 0.00 in0.0 mm 0.08 in2.0 mm
08:55 AM 36.3°F2.4°C 35.4°F1.9°C 96% 4.0 mph NW6.4 kmh NW 11.0 mph17.7 kmh 29.66 in1004.4 mb 0.05 in1.3 mm 0.12 in3.0 mm 0.09 in2.3 mm
09:00 AM 36.1°F2.3°C 35.2°F1.8°C 96% 5.0 mph NW8.0 kmh NW 14.0 mph22.5 kmh 29.66 in1004.4 mb 0.05 in1.3 mm 0.00 in0.0 mm 0.09 in2.3 mm
09:05 AM 36.1°F2.3°C 35.2°F1.8°C 96% 4.0 mph NW6.4 kmh NW 14.0 mph22.5 kmh 29.66 in1004.4 mb 0.05 in1.3 mm 0.00 in0.0 mm 0.09 in2.3 mm
09:10 AM 36.1°F2.3°C 35.1°F1.7°C 96% 4.0 mph NW6.4 kmh NW 8.0 mph12.9 kmh 29.67 in1004.7 mb 0.05 in1.3 mm 0.00 in0.0 mm 0.09 in2.3 mm
09:15 AM 36.3°F2.4°C 35.2°F1.8°C 96% 3.0 mph NW4.8 kmh NW 8.0 mph12.9 kmh 29.67 in1004.7 mb 0.04 in1.0 mm 0.00 in0.0 mm 0.09 in2.3 mm
09:20 AM 36.5°F2.5°C 35.4°F1.9°C 96% 2.0 mph NW3.2 kmh NW 6.0 mph9.7 kmh 29.68 in1005.1 mb 0.05 in1.3 mm 0.12 in3.0 mm 0.10 in2.5 mm
09:25 AM 36.3°F2.4°C 35.2°F1.8°C 96% 3.0 mph NW4.8 kmh NW 9.0 mph14.5 kmh 29.68 in1005.1 mb 0.04 in1.0 mm 0.00 in0.0 mm 0.10 in2.5 mm
09:30 AM 36.3°F2.4°C 35.2°F1.8°C 96% 4.0 mph NW6.4 kmh NW 10.0 mph16.1 kmh 29.68 in1005.1 mb 0.03 in0.8 mm 0.00 in0.0 mm 0.10 in2.5 mm
09:35 AM 36.3°F2.4°C 35.4°F1.9°C 96% 4.0 mph NW6.4 kmh NW 10.0 mph16.1 kmh 29.68 in1005.1 mb 0.03 in0.8 mm 0.00 in0.0 mm 0.10 in2.5 mm
09:40 AM 36.5°F2.5°C 35.4°F1.9°C 96% 3.0 mph NW4.8 kmh NW 8.0 mph12.9 kmh 29.68 in1005.1 mb 0.02 in0.5 mm 0.00 in0.0 mm 0.10 in2.5 mm
09:45 AM 36.5°F2.5°C 35.4°F1.9°C 96% 2.0 mph NW3.2 kmh NW 8.0 mph12.9 kmh 29.69 in1005.4 mb 0.02 in0.5 mm 0.00 in0.0 mm 0.10 in2.5 mm
09:50 AM 36.3°F2.4°C 35.4°F1.9°C 96% 3.0 mph NW4.8 kmh NW 9.0 mph14.5 kmh 29.69 in1005.4 mb 0.02 in0.5 mm 0.00 in0.0 mm 0.11 in2.8 mm
09:55 AM 36.5°F2.5°C 35.4°F1.9°C 96% 3.0 mph NW4.8 kmh NW 9.0 mph14.5 kmh 29.69 in1005.4 mb 0.02 in0.5 mm 0.00 in0.0 mm 0.11 in2.8 mm
10:00 AM 36.5°F2.5°C 35.4°F1.9°C 96% 3.0 mph NW4.8 kmh NW 7.0 mph11.3 kmh 29.70 in1005.8 mb 0.02 in0.5 mm 0.00 in0.0 mm 0.11 in2.8 mm
10:05 AM 36.3°F2.4°C 35.4°F1.9°C 96% 3.0 mph NW4.8 kmh NW 9.0 mph14.5 kmh 29.70 in1005.8 mb 0.02 in0.5 mm 0.00 in0.0 mm 0.11 in2.8 mm
10:10 AM 36.3°F2.4°C 35.4°F1.9°C 96% 4.0 mph NW6.4 kmh NW 9.0 mph14.5 kmh 29.70 in1005.8 mb 0.02 in0.5 mm 0.00 in0.0 mm 0.11 in2.8 mm
10:15 AM 36.5°F2.5°C 35.4°F1.9°C 96% 4.0 mph NW6.4 kmh NW 9.0 mph14.5 kmh 29.71 in1006.1 mb 0.02 in0.5 mm 0.00 in0.0 mm 0.11 in2.8 mm
10:20 AM 36.3°F2.4°C 35.4°F1.9°C 96% 5.0 mph NW8.0 kmh NW 10.0 mph16.1 kmh 29.71 in1006.1 mb 0.02 in0.5 mm 0.00 in0.0 mm 0.12 in3.0 mm
10:25 AM 36.3°F2.4°C 35.4°F1.9°C 96% 4.0 mph NW6.4 kmh NW 10.0 mph16.1 kmh 29.72 in1006.4 mb 0.02 in0.5 mm 0.00 in0.0 mm 0.12 in3.0 mm
10:30 AM 36.5°F2.5°C 35.4°F1.9°C 96% 4.0 mph NW6.4 kmh NW 10.0 mph16.1 kmh 29.72 in1006.4 mb 0.02 in0.5 mm 0.00 in0.0 mm 0.12 in3.0 mm
10:35 AM 36.3°F2.4°C 35.1°F1.7°C 95% 4.0 mph NW6.4 kmh NW 9.0 mph14.5 kmh 29.72 in1006.4 mb 0.02 in0.5 mm 0.00 in0.0 mm 0.12 in3.0 mm
10:40 AM 36.5°F2.5°C 35.2°F1.8°C 95% 4.0 mph NW6.4 kmh NW 8.0 mph12.9 kmh 29.72 in1006.4 mb 0.02 in0.5 mm 0.00 in0.0 mm 0.12 in3.0 mm
10:45 AM 36.5°F2.5°C 35.2°F1.8°C 95% 4.0 mph NW6.4 kmh NW 8.0 mph12.9 kmh 29.73 in1006.8 mb 0.02 in0.5 mm 0.00 in0.0 mm 0.13 in3.3 mm
10:50 AM 36.5°F2.5°C 35.2°F1.8°C 95% 4.0 mph NW6.4 kmh NW 9.0 mph14.5 kmh 29.73 in1006.8 mb 0.02 in0.5 mm 0.00 in0.0 mm 0.13 in3.3 mm
10:55 AM 36.7°F2.6°C 35.2°F1.8°C 95% 4.0 mph NW6.4 kmh NW 9.0 mph14.5 kmh 29.73 in1006.8 mb 0.02 in0.5 mm 0.00 in0.0 mm 0.13 in3.3 mm
11:00 AM 36.7°F2.6°C 35.2°F1.8°C 95% 3.0 mph NW4.8 kmh NW 9.0 mph14.5 kmh 29.74 in1007.1 mb 0.02 in0.5 mm 0.00 in0.0 mm 0.13 in3.3 mm
11:05 AM 36.7°F2.6°C 35.4°F1.9°C 95% 3.0 mph NW4.8 kmh NW 9.0 mph14.5 kmh 29.74 in1007.1 mb 0.02 in0.5 mm 0.00 in0.0 mm 0.13 in3.3 mm
11:10 AM 36.7°F2.6°C 35.2°F1.8°C 95% 3.0 mph NW4.8 kmh NW 8.0 mph12.9 kmh 29.74 in1007.1 mb 0.02 in0.5 mm 0.00 in0.0 mm 0.13 in3.3 mm
11:15 AM 36.7°F2.6°C 35.2°F1.8°C 95% 4.0 mph NW6.4 kmh NW 10.0 mph16.1 kmh 29.74 in1007.1 mb 0.02 in0.5 mm 0.00 in0.0 mm 0.13 in3.3 mm
11:20 AM 36.7°F2.6°C 35.2°F1.8°C 95% 4.0 mph NW6.4 kmh NW 10.0 mph16.1 kmh 29.74 in1007.1 mb 0.01 in0.3 mm 0.00 in0.0 mm 0.13 in3.3 mm
11:25 AM 36.5°F2.5°C 35.2°F1.8°C 95% 4.0 mph NW6.4 kmh NW 9.0 mph14.5 kmh 29.74 in1007.1 mb 0.01 in0.3 mm 0.00 in0.0 mm 0.13 in3.3 mm
11:30 AM 36.5°F2.5°C 35.2°F1.8°C 95% 4.0 mph NW6.4 kmh NW 9.0 mph14.5 kmh 29.74 in1007.1 mb 0.02 in0.5 mm 0.12 in3.0 mm 0.13 in3.3 mm
11:35 AM 36.5°F2.5°C 35.2°F1.8°C 95% 3.0 mph NW4.8 kmh NW 9.0 mph14.5 kmh 29.75 in1007.5 mb 0.02 in0.5 mm 0.00 in0.0 mm 0.13 in3.3 mm
11:40 AM 36.3°F2.4°C 35.1°F1.7°C 95% 4.0 mph NW6.4 kmh NW 9.0 mph14.5 kmh 29.75 in1007.5 mb 0.01 in0.3 mm 0.00 in0.0 mm 0.13 in3.3 mm
11:45 AM 36.3°F2.4°C 35.1°F1.7°C 95% 4.0 mph NW6.4 kmh NW 10.0 mph16.1 kmh 29.75 in1007.5 mb 0.01 in0.3 mm 0.00 in0.0 mm 0.13 in3.3 mm
11:50 AM 36.5°F2.5°C 35.2°F1.8°C 95% 4.0 mph NW6.4 kmh NW 10.0 mph16.1 kmh 29.76 in1007.8 mb 0.01 in0.3 mm 0.00 in0.0 mm 0.13 in3.3 mm
11:55 AM 36.5°F2.5°C 35.2°F1.8°C 95% 3.0 mph NW4.8 kmh NW 9.0 mph14.5 kmh 29.76 in1007.8 mb 0.02 in0.5 mm 0.12 in3.0 mm 0.14 in3.6 mm
12:00 PM 36.5°F2.5°C 35.2°F1.8°C 95% 2.0 mph NW3.2 kmh NW 10.0 mph16.1 kmh 29.75 in1007.5 mb 0.02 in0.5 mm 0.00 in0.0 mm 0.14 in3.6 mm
12:05 PM 36.7°F2.6°C 35.2°F1.8°C 95% 3.0 mph NW4.8 kmh NW 10.0 mph16.1 kmh 29.76 in1007.8 mb 0.02 in0.5 mm 0.00 in0.0 mm 0.14 in3.6 mm
12:10 PM 36.7°F2.6°C 35.2°F1.8°C 95% 3.0 mph NW4.8 kmh NW 7.0 mph11.3 kmh 29.76 in1007.8 mb 0.02 in0.5 mm 0.00 in0.0 mm 0.14 in3.6 mm
12:15 PM 36.9°F2.7°C 35.4°F1.9°C 95% 2.0 mph NW3.2 kmh NW 7.0 mph11.3 kmh 29.76 in1007.8 mb 0.02 in0.5 mm 0.00 in0.0 mm 0.14 in3.6 mm
12:20 PM 36.7°F2.6°C 35.4°F1.9°C 95% 2.0 mph NW3.2 kmh NW 9.0 mph14.5 kmh 29.77 in1008.1 mb 0.02 in0.5 mm 0.00 in0.0 mm 0.14 in3.6 mm
12:25 PM 37.0°F2.8°C 35.8°F2.1°C 95% 3.0 mph NW4.8 kmh NW 9.0 mph14.5 kmh 29.76 in1007.8 mb 0.02 in0.5 mm 0.00 in0.0 mm 0.14 in3.6 mm
12:30 PM 37.0°F2.8°C 35.8°F2.1°C 95% 2.0 mph NW3.2 kmh NW 10.0 mph16.1 kmh 29.76 in1007.8 mb 0.01 in0.3 mm 0.00 in0.0 mm 0.14 in3.6 mm
12:35 PM 37.0°F2.8°C 35.8°F2.1°C 95% 3.0 mph NW4.8 kmh NW 10.0 mph16.1 kmh 29.77 in1008.1 mb 0.01 in0.3 mm 0.00 in0.0 mm 0.14 in3.6 mm
12:40 PM 37.2°F2.9°C 36.0°F2.2°C 95% 3.0 mph NW4.8 kmh NW 7.0 mph11.3 kmh 29.77 in1008.1 mb 0.01 in0.3 mm 0.00 in0.0 mm 0.14 in3.6 mm
12:45 PM 37.2°F2.9°C 35.6°F2.0°C 94% 3.0 mph NW4.8 kmh NW 10.0 mph16.1 kmh 29.77 in1008.1 mb 0.01 in0.3 mm 0.00 in0.0 mm 0.14 in3.6 mm
12:50 PM 37.2°F2.9°C 35.6°F2.0°C 94% 4.0 mph NW6.4 kmh NW 10.0 mph16.1 kmh 29.77 in1008.1 mb 0.01 in0.3 mm 0.00 in0.0 mm 0.14 in3.6 mm
12:55 PM 37.2°F2.9°C 35.8°F2.1°C 94% 4.0 mph NW6.4 kmh NW 9.0 mph14.5 kmh 29.77 in1008.1 mb 0.00 in0.0 mm 0.00 in0.0 mm 0.14 in3.6 mm
01:00 PM 37.6°F3.1°C 36.0°F2.2°C 94% 3.0 mph NW4.8 kmh NW 7.0 mph11.3 kmh 29.77 in1008.1 mb 0.00 in0.0 mm 0.00 in0.0 mm 0.14 in3.6 mm
01:05 PM 37.6°F3.1°C 36.0°F2.2°C 94% 2.0 mph NW3.2 kmh NW 9.0 mph14.5 kmh 29.78 in1008.5 mb 0.00 in0.0 mm 0.00 in0.0 mm 0.14 in3.6 mm
01:10 PM 37.6°F3.1°C 36.0°F2.2°C 94% 3.0 mph NW4.8 kmh NW 9.0 mph14.5 kmh 29.78 in1008.5 mb 0.00 in0.0 mm 0.00 in0.0 mm 0.14 in3.6 mm
01:15 PM 37.4°F3.0°C 35.8°F2.1°C 94% 3.0 mph NW4.8 kmh NW 8.0 mph12.9 kmh 29.78 in1008.5 mb 0.00 in0.0 mm 0.00 in0.0 mm 0.14 in3.6 mm
01:20 PM 37.6°F3.1°C 36.0°F2.2°C 94% 3.0 mph NW4.8 kmh NW 8.0 mph12.9 kmh 29.78 in1008.5 mb 0.00 in0.0 mm 0.00 in0.0 mm 0.14 in3.6 mm
01:25 PM 37.6°F3.1°C 36.0°F2.2°C 94% 2.0 mph NW3.2 kmh NW 7.0 mph11.3 kmh 29.78 in1008.5 mb 0.00 in0.0 mm 0.00 in0.0 mm 0.14 in3.6 mm
01:30 PM 37.8°F3.2°C 35.8°F2.1°C 93% 2.0 mph NW3.2 kmh NW 7.0 mph11.3 kmh 29.78 in1008.5 mb 0.00 in0.0 mm 0.00 in0.0 mm 0.14 in3.6 mm
01:35 PM 37.6°F3.1°C 35.8°F2.1°C 93% 2.0 mph NW3.2 kmh NW 7.0 mph11.3 kmh 29.78 in1008.5 mb 0.00 in0.0 mm 0.00 in0.0 mm 0.14 in3.6 mm
01:40 PM 37.8°F3.2°C 35.8°F2.1°C 93% 3.0 mph NW4.8 kmh NW 7.0 mph11.3 kmh 29.78 in1008.5 mb 0.00 in0.0 mm 0.00 in0.0 mm 0.14 in3.6 mm
01:45 PM 37.8°F3.2°C 36.0°F2.2°C 93% 2.0 mph NW3.2 kmh NW 8.0 mph12.9 kmh 29.79 in1008.8 mb 0.00 in0.0 mm 0.00 in0.0 mm 0.14 in3.6 mm
01:50 PM 37.9°F3.3°C 36.1°F2.3°C 93% 1.0 mph NW1.6 kmh NW 8.0 mph12.9 kmh 29.79 in1008.8 mb 0.00 in0.0 mm 0.00 in0.0 mm 0.14 in3.6 mm
01:55 PM 38.1°F3.4°C 36.3°F2.4°C 93% 1.0 mph NW1.6 kmh NW 4.0 mph6.4 kmh 29.80 in1009.1 mb 0.00 in0.0 mm 0.00 in0.0 mm 0.14 in3.6 mm
02:00 PM 38.1°F3.4°C 36.3°F2.4°C 93% 1.0 mph NW1.6 kmh NW 6.0 mph9.7 kmh 29.80 in1009.1 mb 0.00 in0.0 mm 0.00 in0.0 mm 0.14 in3.6 mm
02:05 PM 38.1°F3.4°C 36.3°F2.4°C 93% 2.0 mph NW3.2 kmh NW 6.0 mph9.7 kmh 29.80 in1009.1 mb 0.00 in0.0 mm 0.00 in0.0 mm 0.14 in3.6 mm
02:10 PM 38.3°F3.5°C 36.5°F2.5°C 93% 1.0 mph NW1.6 kmh NW 4.0 mph6.4 kmh 29.80 in1009.1 mb 0.00 in0.0 mm 0.00 in0.0 mm 0.14 in3.6 mm
02:15 PM 38.5°F3.6°C 36.5°F2.5°C 93% Calm Calm 2.0 mph3.2 kmh 29.80 in1009.1 mb 0.00 in0.0 mm 0.00 in0.0 mm 0.14 in3.6 mm
02:20 PM 38.5°F3.6°C 36.5°F2.5°C 93% Calm Calm 3.0 mph4.8 kmh 29.80 in1009.1 mb 0.00 in0.0 mm 0.00 in0.0 mm 0.14 in3.6 mm
02:25 PM 38.5°F3.6°C 36.5°F2.5°C 93% 1.0 mph NW1.6 kmh NW 4.0 mph6.4 kmh 29.81 in1009.5 mb 0.00 in0.0 mm 0.00 in0.0 mm 0.14 in3.6 mm
02:30 PM 38.5°F3.6°C 36.7°F2.6°C 93% 1.0 mph NW1.6 kmh NW 4.0 mph6.4 kmh 29.81 in1009.5 mb 0.00 in0.0 mm 0.00 in0.0 mm 0.14 in3.6 mm
02:35 PM 38.7°F3.7°C 36.7°F2.6°C 93% Calm Calm 4.0 mph6.4 kmh 29.82 in1009.8 mb 0.00 in0.0 mm 0.00 in0.0 mm 0.14 in3.6 mm
02:40 PM 38.7°F3.7°C 36.7°F2.6°C 93% Calm Calm 4.0 mph6.4 kmh 29.82 in1009.8 mb 0.00 in0.0 mm 0.00 in0.0 mm 0.14 in3.6 mm
02:45 PM 38.5°F3.6°C 36.7°F2.6°C 93% 1.0 mph NW1.6 kmh NW 5.0 mph8.0 kmh 29.82 in1009.8 mb 0.00 in0.0 mm 0.00 in0.0 mm 0.14 in3.6 mm
02:50 PM 38.5°F3.6°C 36.7°F2.6°C 93% 2.0 mph NW3.2 kmh NW 10.0 mph16.1 kmh 29.82 in1009.8 mb 0.00 in0.0 mm 0.00 in0.0 mm 0.14 in3.6 mm
02:55 PM 38.5°F3.6°C 36.3°F2.4°C 92% 3.0 mph NW4.8 kmh NW 10.0 mph16.1 kmh 29.82 in1009.8 mb 0.00 in0.0 mm 0.00 in0.0 mm 0.14 in3.6 mm
03:00 PM 38.5°F3.6°C 36.3°F2.4°C 92% 2.0 mph NW3.2 kmh NW 5.0 mph8.0 kmh 29.82 in1009.8 mb 0.00 in0.0 mm 0.00 in0.0 mm 0.14 in3.6 mm
03:05 PM 38.5°F3.6°C 36.3°F2.4°C 92% 1.0 mph NW1.6 kmh NW 5.0 mph8.0 kmh 29.83 in1010.2 mb 0.00 in0.0 mm 0.00 in0.0 mm 0.14 in3.6 mm
03:10 PM 38.7°F3.7°C 36.7°F2.6°C 93% 1.0 mph NW1.6 kmh NW 3.0 mph4.8 kmh 29.83 in1010.2 mb 0.00 in0.0 mm 0.00 in0.0 mm 0.14 in3.6 mm
03:15 PM 38.5°F3.6°C 36.7°F2.6°C 93% 1.0 mph NW1.6 kmh NW 6.0 mph9.7 kmh 29.83 in1010.2 mb 0.00 in0.0 mm 0.00 in0.0 mm 0.14 in3.6 mm
03:20 PM 38.5°F3.6°C 36.7°F2.6°C 93% 1.0 mph NW1.6 kmh NW 7.0 mph11.3 kmh 29.83 in1010.2 mb 0.00 in0.0 mm 0.00 in0.0 mm 0.14 in3.6 mm
03:25 PM 38.5°F3.6°C 36.3°F2.4°C 92% 2.0 mph NW3.2 kmh NW 7.0 mph11.3 kmh 29.83 in1010.2 mb 0.00 in0.0 mm 0.00 in0.0 mm 0.14 in3.6 mm
03:30 PM 38.5°F3.6°C 36.3°F2.4°C 92% 2.0 mph NW3.2 kmh NW 5.0 mph8.0 kmh 29.84 in1010.5 mb 0.00 in0.0 mm 0.00 in0.0 mm 0.14 in3.6 mm
03:35 PM 38.5°F3.6°C 36.5°F2.5°C 93% 1.0 mph NW1.6 kmh NW 5.0 mph8.0 kmh 29.84 in1010.5 mb 0.00 in0.0 mm 0.00 in0.0 mm 0.14 in3.6 mm
03:40 PM 38.5°F3.6°C 36.5°F2.5°C 93% Calm Calm 5.0 mph8.0 kmh 29.84 in1010.5 mb 0.00 in0.0 mm 0.00 in0.0 mm 0.14 in3.6 mm
03:45 PM 38.5°F3.6°C 36.5°F2.5°C 93% 1.0 mph NW1.6 kmh NW 5.0 mph8.0 kmh 29.84 in1010.5 mb 0.00 in0.0 mm 0.00 in0.0 mm 0.14 in3.6 mm
03:50 PM 38.5°F3.6°C 36.5°F2.5°C 93% 2.0 mph NW3.2 kmh NW 6.0 mph9.7 kmh 29.84 in1010.5 mb 0.00 in0.0 mm 0.00 in0.0 mm 0.14 in3.6 mm
03:55 PM 38.5°F3.6°C 36.5°F2.5°C 93% 1.0 mph NW1.6 kmh NW 6.0 mph9.7 kmh 29.84 in1010.5 mb 0.00 in0.0 mm 0.00 in0.0 mm 0.14 in3.6 mm
04:00 PM 38.5°F3.6°C 36.7°F2.6°C 93% 1.0 mph NW1.6 kmh NW 6.0 mph9.7 kmh 29.84 in1010.5 mb 0.00 in0.0 mm 0.00 in0.0 mm 0.14 in3.6 mm
04:05 PM 38.5°F3.6°C 36.5°F2.5°C 93% 1.0 mph NW1.6 kmh NW 7.0 mph11.3 kmh 29.84 in1010.5 mb 0.00 in0.0 mm 0.00 in0.0 mm 0.14 in3.6 mm
04:10 PM 38.5°F3.6°C 36.5°F2.5°C 93% 1.0 mph NW1.6 kmh NW 7.0 mph11.3 kmh 29.85 in1010.8 mb 0.00 in0.0 mm 0.00 in0.0 mm 0.14 in3.6 mm
04:15 PM 38.3°F3.5°C 36.5°F2.5°C 93% 1.0 mph NW1.6 kmh NW 5.0 mph8.0 kmh 29.85 in1010.8 mb 0.00 in0.0 mm 0.00 in0.0 mm 0.14 in3.6 mm
04:20 PM 38.3°F3.5°C 36.5°F2.5°C 93% 2.0 mph NW3.2 kmh NW 6.0 mph9.7 kmh 29.85 in1010.8 mb 0.00 in0.0 mm 0.00 in0.0 mm 0.14 in3.6 mm
04:25 PM 38.1°F3.4°C 36.3°F2.4°C 93% 2.0 mph NW3.2 kmh NW 6.0 mph9.7 kmh 29.85 in1010.8 mb 0.00 in0.0 mm 0.00 in0.0 mm 0.14 in3.6 mm
04:30 PM 38.1°F3.4°C 36.3°F2.4°C 93% 2.0 mph NW3.2 kmh NW 6.0 mph9.7 kmh 29.86 in1011.2 mb 0.00 in0.0 mm 0.00 in0.0 mm 0.14 in3.6 mm
04:35 PM 38.1°F3.4°C 36.3°F2.4°C 93% 1.0 mph NW1.6 kmh NW 6.0 mph9.7 kmh 29.86 in1011.2 mb 0.00 in0.0 mm 0.00 in0.0 mm 0.14 in3.6 mm
04:40 PM 38.1°F3.4°C 36.3°F2.4°C 93% Calm Calm 4.0 mph6.4 kmh 29.86 in1011.2 mb 0.00 in0.0 mm 0.00 in0.0 mm 0.14 in3.6 mm
04:45 PM 38.1°F3.4°C 36.3°F2.4°C 93% Calm Calm 4.0 mph6.4 kmh 29.86 in1011.2 mb 0.00 in0.0 mm 0.00 in0.0 mm 0.14 in3.6 mm
04:50 PM 38.1°F3.4°C 36.3°F2.4°C 93% 1.0 mph NW1.6 kmh NW 4.0 mph6.4 kmh 29.87 in1011.5 mb 0.00 in0.0 mm 0.00 in0.0 mm 0.14 in3.6 mm
04:55 PM 38.1°F3.4°C 36.3°F2.4°C 93% Calm Calm 4.0 mph6.4 kmh 29.87 in1011.5 mb 0.00 in0.0 mm 0.00 in0.0 mm 0.14 in3.6 mm
05:00 PM 38.1°F3.4°C 36.5°F2.5°C 94% Calm Calm 2.0 mph3.2 kmh 29.87 in1011.5 mb 0.00 in0.0 mm 0.00 in0.0 mm 0.14 in3.6 mm
05:05 PM 38.1°F3.4°C 36.5°F2.5°C 94% Calm Calm 2.0 mph3.2 kmh 29.87 in1011.5 mb 0.00 in0.0 mm 0.00 in0.0 mm 0.14 in3.6 mm
05:10 PM 38.1°F3.4°C 36.7°F2.6°C 94% Calm Calm 4.0 mph6.4 kmh 29.88 in1011.9 mb 0.00 in0.0 mm 0.00 in0.0 mm 0.14 in3.6 mm
05:15 PM 38.1°F3.4°C 36.7°F2.6°C 94% 1.0 mph NW1.6 kmh NW 4.0 mph6.4 kmh 29.88 in1011.9 mb 0.00 in0.0 mm 0.00 in0.0 mm 0.14 in3.6 mm
05:20 PM 38.1°F3.4°C 36.7°F2.6°C 94% 1.0 mph NW1.6 kmh NW 3.0 mph4.8 kmh 29.88 in1011.9 mb 0.00 in0.0 mm 0.00 in0.0 mm 0.14 in3.6 mm
05:25 PM 38.1°F3.4°C 36.7°F2.6°C 94% 1.0 mph NW1.6 kmh NW 4.0 mph6.4 kmh 29.88 in1011.9 mb 0.00 in0.0 mm 0.00 in0.0 mm 0.14 in3.6 mm
05:30 PM 38.1°F3.4°C 36.5°F2.5°C 94% 1.0 mph NW1.6 kmh NW 4.0 mph6.4 kmh 29.89 in1012.2 mb 0.00 in0.0 mm 0.00 in0.0 mm 0.14 in3.6 mm
05:35 PM 38.3°F3.5°C 36.7°F2.6°C 94% 1.0 mph NW1.6 kmh NW 4.0 mph6.4 kmh 29.89 in1012.2 mb 0.00 in0.0 mm 0.00 in0.0 mm 0.14 in3.6 mm
05:40 PM 38.3°F3.5°C 36.7°F2.6°C 94% Calm Calm 2.0 mph3.2 kmh 29.89 in1012.2 mb 0.00 in0.0 mm 0.00 in0.0 mm 0.14 in3.6 mm
05:45 PM 38.1°F3.4°C 36.7°F2.6°C 94% Calm Calm 3.0 mph4.8 kmh 29.89 in1012.2 mb 0.00 in0.0 mm 0.00 in0.0 mm 0.14 in3.6 mm
05:50 PM 38.1°F3.4°C 36.5°F2.5°C 94% 1.0 mph NW1.6 kmh NW 3.0 mph4.8 kmh 29.90 in1012.5 mb 0.00 in0.0 mm 0.00 in0.0 mm 0.14 in3.6 mm
05:55 PM 38.1°F3.4°C 36.3°F2.4°C 93% 2.0 mph NW3.2 kmh NW 7.0 mph11.3 kmh 29.90 in1012.5 mb 0.00 in0.0 mm 0.00 in0.0 mm 0.14 in3.6 mm
06:00 PM 37.9°F3.3°C 36.1°F2.3°C 93% 2.0 mph NW3.2 kmh NW 7.0 mph11.3 kmh 29.91 in1012.9 mb 0.00 in0.0 mm 0.00 in0.0 mm 0.14 in3.6 mm
06:05 PM 37.9°F3.3°C 36.1°F2.3°C 93% 1.0 mph NW1.6 kmh NW 5.0 mph8.0 kmh 29.91 in1012.9 mb 0.00 in0.0 mm 0.00 in0.0 mm 0.14 in3.6 mm
06:10 PM 37.9°F3.3°C 36.1°F2.3°C 93% 1.0 mph NW1.6 kmh NW 5.0 mph8.0 kmh 29.91 in1012.9 mb 0.00 in0.0 mm 0.00 in0.0 mm 0.14 in3.6 mm
06:15 PM 37.8°F3.2°C 36.0°F2.2°C 93% 1.0 mph NW1.6 kmh NW 5.0 mph8.0 kmh 29.91 in1012.9 mb 0.00 in0.0 mm 0.00 in0.0 mm 0.14 in3.6 mm
06:20 PM 37.8°F3.2°C 35.8°F2.1°C 93% 1.0 mph NW1.6 kmh NW 5.0 mph8.0 kmh 29.91 in1012.9 mb 0.00 in0.0 mm 0.00 in0.0 mm 0.14 in3.6 mm
06:25 PM 37.8°F3.2°C 35.8°F2.1°C 93% 1.0 mph NW1.6 kmh NW 5.0 mph8.0 kmh 29.91 in1012.9 mb 0.00 in0.0 mm 0.00 in0.0 mm 0.14 in3.6 mm
06:30 PM 37.8°F3.2°C 36.1°F2.3°C 94% Calm Calm 2.0 mph3.2 kmh 29.92 in1013.2 mb 0.00 in0.0 mm 0.00 in0.0 mm 0.14 in3.6 mm
06:35 PM 37.8°F3.2°C 36.1°F2.3°C 94% Calm Calm 4.0 mph6.4 kmh 29.92 in1013.2 mb 0.00 in0.0 mm 0.00 in0.0 mm 0.14 in3.6 mm
06:40 PM 37.8°F3.2°C 36.1°F2.3°C 94% Calm Calm 4.0 mph6.4 kmh 29.92 in1013.2 mb 0.00 in0.0 mm 0.00 in0.0 mm 0.14 in3.6 mm
06:45 PM 37.8°F3.2°C 36.1°F2.3°C 94% Calm Calm 3.0 mph4.8 kmh 29.92 in1013.2 mb 0.00 in0.0 mm 0.00 in0.0 mm 0.14 in3.6 mm
06:50 PM 37.8°F3.2°C 36.1°F2.3°C 94% Calm Calm 4.0 mph6.4 kmh 29.93 in1013.5 mb 0.00 in0.0 mm 0.00 in0.0 mm 0.14 in3.6 mm
06:55 PM 37.8°F3.2°C 36.1°F2.3°C 94% 1.0 mph NW1.6 kmh NW 4.0 mph6.4 kmh 29.93 in1013.5 mb 0.00 in0.0 mm 0.00 in0.0 mm 0.14 in3.6 mm
07:00 PM 37.8°F3.2°C 36.1°F2.3°C 94% 1.0 mph NW1.6 kmh NW 4.0 mph6.4 kmh 29.93 in1013.5 mb 0.00 in0.0 mm 0.00 in0.0 mm 0.14 in3.6 mm
07:05 PM 37.8°F3.2°C 36.1°F2.3°C 94% 1.0 mph NW1.6 kmh NW 4.0 mph6.4 kmh 29.93 in1013.5 mb 0.00 in0.0 mm 0.00 in0.0 mm 0.14 in3.6 mm
07:10 PM 37.8°F3.2°C 36.1°F2.3°C 94% 1.0 mph NW1.6 kmh NW 6.0 mph9.7 kmh 29.93 in1013.5 mb 0.00 in0.0 mm 0.00 in0.0 mm 0.14 in3.6 mm
07:15 PM 37.8°F3.2°C 36.1°F2.3°C 94% 1.0 mph NW1.6 kmh NW 6.0 mph9.7 kmh 29.94 in1013.9 mb 0.00 in0.0 mm 0.00 in0.0 mm 0.14 in3.6 mm
07:20 PM 37.8°F3.2°C 36.0°F2.2°C 93% 2.0 mph NW3.2 kmh NW 6.0 mph9.7 kmh 29.93 in1013.5 mb 0.00 in0.0 mm 0.00 in0.0 mm 0.14 in3.6 mm
07:25 PM 37.8°F3.2°C 36.0°F2.2°C 93% 2.0 mph NW3.2 kmh NW 5.0 mph8.0 kmh 29.94 in1013.9 mb 0.00 in0.0 mm 0.00 in0.0 mm 0.14 in3.6 mm
07:30 PM 37.8°F3.2°C 36.0°F2.2°C 93% 1.0 mph NW1.6 kmh NW 5.0 mph8.0 kmh 29.94 in1013.9 mb 0.00 in0.0 mm 0.00 in0.0 mm 0.14 in3.6 mm
07:35 PM 37.8°F3.2°C 36.0°F2.2°C 93% 1.0 mph NW1.6 kmh NW 6.0 mph9.7 kmh 29.94 in1013.9 mb 0.00 in0.0 mm 0.00 in0.0 mm 0.14 in3.6 mm
07:40 PM 37.8°F3.2°C 35.8°F2.1°C 93% 1.0 mph NW1.6 kmh NW 6.0 mph9.7 kmh 29.94 in1013.9 mb 0.00 in0.0 mm 0.00 in0.0 mm 0.14 in3.6 mm
07:45 PM 37.8°F3.2°C 35.8°F2.1°C 93% 1.0 mph NW1.6 kmh NW 4.0 mph6.4 kmh 29.94 in1013.9 mb 0.00 in0.0 mm 0.00 in0.0 mm 0.14 in3.6 mm
07:50 PM 37.8°F3.2°C 35.8°F2.1°C 93% 1.0 mph NW1.6 kmh NW 4.0 mph6.4 kmh 29.95 in1014.2 mb 0.00 in0.0 mm 0.00 in0.0 mm 0.14 in3.6 mm
07:55 PM 37.6°F3.1°C 35.8°F2.1°C 93% 1.0 mph NW1.6 kmh NW 4.0 mph6.4 kmh 29.95 in1014.2 mb 0.00 in0.0 mm 0.00 in0.0 mm 0.14 in3.6 mm
08:00 PM 37.6°F3.1°C 35.6°F2.0°C 93% 2.0 mph NW3.2 kmh NW 5.0 mph8.0 kmh 29.95 in1014.2 mb 0.00 in0.0 mm 0.00 in0.0 mm 0.14 in3.6 mm
08:05 PM 37.6°F3.1°C 35.6°F2.0°C 93% 2.0 mph NW3.2 kmh NW 5.0 mph8.0 kmh 29.95 in1014.2 mb 0.00 in0.0 mm 0.00 in0.0 mm 0.14 in3.6 mm
08:10 PM 37.6°F3.1°C 35.6°F2.0°C 93% 2.0 mph NW3.2 kmh NW 5.0 mph8.0 kmh 29.95 in1014.2 mb 0.00 in0.0 mm 0.00 in0.0 mm 0.14 in3.6 mm
08:15 PM 37.6°F3.1°C 35.6°F2.0°C 93% 2.0 mph NW3.2 kmh NW 6.0 mph9.7 kmh 29.95 in1014.2 mb 0.00 in0.0 mm 0.00 in0.0 mm 0.14 in3.6 mm
08:20 PM 37.6°F3.1°C 35.6°F2.0°C 93% 1.0 mph NW1.6 kmh NW 6.0 mph9.7 kmh 29.96 in1014.6 mb 0.00 in0.0 mm 0.00 in0.0 mm 0.14 in3.6 mm
08:25 PM 37.6°F3.1°C 35.8°F2.1°C 93% 1.0 mph NW1.6 kmh NW 6.0 mph9.7 kmh 29.96 in1014.6 mb 0.00 in0.0 mm 0.00 in0.0 mm 0.14 in3.6 mm
08:30 PM 37.6°F3.1°C 35.6°F2.0°C 93% 2.0 mph NW3.2 kmh NW 6.0 mph9.7 kmh 29.96 in1014.6 mb 0.00 in0.0 mm 0.00 in0.0 mm 0.14 in3.6 mm
08:35 PM 37.6°F3.1°C 35.8°F2.1°C 93% 1.0 mph NW1.6 kmh NW 6.0 mph9.7 kmh 29.96 in1014.6 mb 0.00 in0.0 mm 0.00 in0.0 mm 0.14 in3.6 mm
08:40 PM 37.6°F3.1°C 35.8°F2.1°C 93% 1.0 mph NW1.6 kmh NW 3.0 mph4.8 kmh 29.96 in1014.6 mb 0.00 in0.0 mm 0.00 in0.0 mm 0.14 in3.6 mm
08:45 PM 37.6°F3.1°C 35.8°F2.1°C 93% 1.0 mph NW1.6 kmh NW 4.0 mph6.4 kmh 29.97 in1014.9 mb 0.00 in0.0 mm 0.00 in0.0 mm 0.14 in3.6 mm
08:50 PM 37.6°F3.1°C 35.8°F2.1°C 93% 1.0 mph NW1.6 kmh NW 6.0 mph9.7 kmh 29.97 in1014.9 mb 0.00 in0.0 mm 0.00 in0.0 mm 0.14 in3.6 mm
08:55 PM 37.6°F3.1°C 35.8°F2.1°C 93% 2.0 mph NW3.2 kmh NW 8.0 mph12.9 kmh 29.97 in1014.9 mb 0.00 in0.0 mm 0.00 in0.0 mm 0.14 in3.6 mm
09:00 PM 37.6°F3.1°C 35.6°F2.0°C 93% 3.0 mph NW4.8 kmh NW 11.0 mph17.7 kmh 29.97 in1014.9 mb 0.00 in0.0 mm 0.00 in0.0 mm 0.14 in3.6 mm
09:05 PM 37.2°F2.9°C 35.4°F1.9°C 93% 3.0 mph NW4.8 kmh NW 11.0 mph17.7 kmh 29.97 in1014.9 mb 0.01 in0.3 mm 0.12 in3.0 mm 0.15 in3.8 mm
09:10 PM 37.0°F2.8°C 35.2°F1.8°C 93% 2.0 mph NW3.2 kmh NW 7.0 mph11.3 kmh 29.98 in1015.2 mb 0.02 in0.5 mm 0.12 in3.0 mm 0.16 in4.1 mm
09:15 PM 37.0°F2.8°C 35.4°F1.9°C 94% 1.0 mph NW1.6 kmh NW 6.0 mph9.7 kmh 29.98 in1015.2 mb 0.02 in0.5 mm 0.00 in0.0 mm 0.16 in4.1 mm
09:20 PM 37.0°F2.8°C 35.4°F1.9°C 94% 1.0 mph NW1.6 kmh NW 3.0 mph4.8 kmh 29.98 in1015.2 mb 0.02 in0.5 mm 0.00 in0.0 mm 0.16 in4.1 mm
09:25 PM 37.0°F2.8°C 35.4°F1.9°C 94% Calm Calm 3.0 mph4.8 kmh 29.98 in1015.2 mb 0.02 in0.5 mm 0.00 in0.0 mm 0.16 in4.1 mm
09:30 PM 37.0°F2.8°C 35.8°F2.1°C 95% Calm Calm 3.0 mph4.8 kmh 29.98 in1015.2 mb 0.02 in0.5 mm 0.00 in0.0 mm 0.16 in4.1 mm
09:35 PM 37.0°F2.8°C 35.8°F2.1°C 95% Calm Calm 3.0 mph4.8 kmh 29.98 in1015.2 mb 0.02 in0.5 mm 0.00 in0.0 mm 0.16 in4.1 mm
09:40 PM 37.0°F2.8°C 35.8°F2.1°C 95% Calm Calm 5.0 mph8.0 kmh 29.98 in1015.2 mb 0.02 in0.5 mm 0.00 in0.0 mm 0.16 in4.1 mm
09:45 PM 37.0°F2.8°C 35.8°F2.1°C 95% Calm Calm 5.0 mph8.0 kmh 29.99 in1015.6 mb 0.02 in0.5 mm 0.00 in0.0 mm 0.16 in4.1 mm
09:50 PM 37.2°F2.9°C 36.0°F2.2°C 95% Calm Calm 5.0 mph8.0 kmh 29.99 in1015.6 mb 0.02 in0.5 mm 0.00 in0.0 mm 0.16 in4.1 mm
09:55 PM 37.2°F2.9°C 36.0°F2.2°C 95% Calm Calm 3.0 mph4.8 kmh 29.99 in1015.6 mb 0.02 in0.5 mm 0.00 in0.0 mm 0.16 in4.1 mm
10:00 PM 37.2°F2.9°C 36.0°F2.2°C 95% 1.0 mph NW1.6 kmh NW 4.0 mph6.4 kmh 29.99 in1015.6 mb 0.01 in0.3 mm 0.00 in0.0 mm 0.16 in4.1 mm
10:05 PM 37.2°F2.9°C 36.0°F2.2°C 95% Calm Calm 4.0 mph6.4 kmh 29.99 in1015.6 mb 0.01 in0.3 mm 0.00 in0.0 mm 0.16 in4.1 mm
10:10 PM 37.2°F2.9°C 36.0°F2.2°C 95% Calm Calm 1.0 mph1.6 kmh 29.99 in1015.6 mb 0.00 in0.0 mm 0.00 in0.0 mm 0.16 in4.1 mm
10:15 PM 37.2°F2.9°C 36.0°F2.2°C 95% Calm Calm 2.0 mph3.2 kmh 30.00 in1015.9 mb 0.00 in0.0 mm 0.00 in0.0 mm 0.16 in4.1 mm
10:20 PM 37.0°F2.8°C 35.8°F2.1°C 95% Calm Calm 2.0 mph3.2 kmh 30.00 in1015.9 mb 0.00 in0.0 mm 0.00 in0.0 mm 0.16 in4.1 mm
10:25 PM 37.0°F2.8°C 35.8°F2.1°C 95% Calm Calm 2.0 mph3.2 kmh 30.00 in1015.9 mb 0.00 in0.0 mm 0.00 in0.0 mm 0.16 in4.1 mm
10:30 PM 37.0°F2.8°C 35.8°F2.1°C 95% Calm Calm -- 30.00 in1015.9 mb 0.00 in0.0 mm 0.00 in0.0 mm 0.16 in4.1 mm
10:35 PM 36.9°F2.7°C 35.6°F2.0°C 95% Calm Calm 1.0 mph1.6 kmh 30.00 in1015.9 mb 0.00 in0.0 mm 0.00 in0.0 mm 0.16 in4.1 mm
10:40 PM 36.9°F2.7°C 35.6°F2.0°C 95% Calm Calm 2.0 mph3.2 kmh 30.00 in1015.9 mb 0.00 in0.0 mm 0.00 in0.0 mm 0.16 in4.1 mm
10:45 PM 36.9°F2.7°C 35.6°F2.0°C 95% Calm Calm 2.0 mph3.2 kmh 30.00 in1015.9 mb 0.00 in0.0 mm 0.00 in0.0 mm 0.16 in4.1 mm
10:50 PM 36.9°F2.7°C 35.6°F2.0°C 95% Calm Calm 2.0 mph3.2 kmh 30.00 in1015.9 mb 0.00 in0.0 mm 0.00 in0.0 mm 0.16 in4.1 mm
10:55 PM 36.9°F2.7°C 35.6°F2.0°C 95% Calm Calm 6.0 mph9.7 kmh 30.01 in1016.3 mb 0.00 in0.0 mm 0.00 in0.0 mm 0.16 in4.1 mm
11:00 PM 37.0°F2.8°C 36.1°F2.3°C 96% 1.0 mph NW1.6 kmh NW 6.0 mph9.7 kmh 30.01 in1016.3 mb 0.00 in0.0 mm 0.00 in0.0 mm 0.16 in4.1 mm
11:05 PM 37.2°F2.9°C 36.1°F2.3°C 96% 1.0 mph NW1.6 kmh NW 5.0 mph8.0 kmh 30.01 in1016.3 mb 0.00 in0.0 mm 0.00 in0.0 mm 0.16 in4.1 mm
11:10 PM 37.2°F2.9°C 36.1°F2.3°C 96% 1.0 mph NW1.6 kmh NW 4.0 mph6.4 kmh 30.01 in1016.3 mb 0.00 in0.0 mm 0.00 in0.0 mm 0.16 in4.1 mm
11:15 PM 37.0°F2.8°C 35.8°F2.1°C 95% 1.0 mph NW1.6 kmh NW 4.0 mph6.4 kmh 30.01 in1016.3 mb 0.00 in0.0 mm 0.00 in0.0 mm 0.16 in4.1 mm
11:20 PM 36.9°F2.7°C 35.6°F2.0°C 95% Calm Calm 3.0 mph4.8 kmh 30.02 in1016.6 mb 0.00 in0.0 mm 0.00 in0.0 mm 0.16 in4.1 mm
11:25 PM 36.9°F2.7°C 35.4°F1.9°C 95% Calm Calm 3.0 mph4.8 kmh 30.02 in1016.6 mb 0.00 in0.0 mm 0.00 in0.0 mm 0.16 in4.1 mm
11:30 PM 36.9°F2.7°C 35.4°F1.9°C 95% Calm Calm 2.0 mph3.2 kmh 30.02 in1016.6 mb 0.00 in0.0 mm 0.00 in0.0 mm 0.16 in4.1 mm
11:35 PM 36.9°F2.7°C 35.8°F2.1°C 96% Calm Calm 4.0 mph6.4 kmh 30.02 in1016.6 mb 0.00 in0.0 mm 0.00 in0.0 mm 0.16 in4.1 mm
11:40 PM 36.9°F2.7°C 35.8°F2.1°C 96% Calm Calm 4.0 mph6.4 kmh 30.02 in1016.6 mb 0.00 in0.0 mm 0.00 in0.0 mm 0.16 in4.1 mm
11:45 PM 36.9°F2.7°C 35.8°F2.1°C 96% Calm Calm 3.0 mph4.8 kmh 30.02 in1016.6 mb 0.00 in0.0 mm 0.00 in0.0 mm 0.16 in4.1 mm
11:50 PM 36.9°F2.7°C 35.8°F2.1°C 96% Calm Calm 3.0 mph4.8 kmh 30.02 in1016.6 mb 0.00 in0.0 mm 0.00 in0.0 mm 0.16 in4.1 mm
11:55 PM 36.7°F2.6°C 35.6°F2.0°C 96% Calm Calm 2.0 mph3.2 kmh 30.02 in1016.6 mb 0.00 in0.0 mm 0.00 in0.0 mm 0.16 in4.1 mm